SWA3517 KMSY-KTPA

Flight info

Callsign SWA3517
Flight time 1h 8m
Altitude 41000
Route REDFN Y280 CHRGE RAYZZ3
Aircraft B38M/M-VGDW/C

Departure

Time 2026-05-08 00:35
Airport Louis Armstrong New Orleans International Airport (KMSY)

Arrival

Time 2026-05-08 01:43
Airport Tampa International Airport (KTPA)
Time Latitude Longitude Altitude Speed Heading
2026-05-08 00:06 29.99356 -90.25609 9 ft 0 kts 275°
2026-05-08 00:23 29.99356 -90.25605 9 ft 3 kts 275°
2026-05-08 00:24 29.99354 -90.25583 9 ft 3 kts 275°
2026-05-08 00:24 29.99354 -90.25562 8 ft 3 kts 251°
2026-05-08 00:24 29.99364 -90.25545 10 ft 2 kts 213°
2026-05-08 00:24 29.99380 -90.25539 12 ft 3 kts 180°
2026-05-08 00:25 29.99384 -90.25538 11 ft 0 kts 180°
2026-05-08 00:30 29.99367 -90.25539 10 ft 8 kts 180°
2026-05-08 00:30 29.99267 -90.25539 8 ft 18 kts 180°
2026-05-08 00:31 29.99203 -90.25437 10 ft 19 kts 94°
2026-05-08 00:31 29.99194 -90.25275 9 ft 22 kts 94°
2026-05-08 00:31 29.99181 -90.25100 11 ft 15 kts 109°
2026-05-08 00:31 29.99087 -90.25079 9 ft 17 kts 195°
2026-05-08 00:32 29.99025 -90.25099 8 ft 5 kts 196°
2026-05-08 00:32 29.99024 -90.25099 8 ft 0 kts 196°
2026-05-08 00:33 29.98999 -90.25108 8 ft 8 kts 196°
2026-05-08 00:33 29.98935 -90.25166 8 ft 14 kts 261°
2026-05-08 00:34 29.98974 -90.25331 8 ft 46 kts 287°
2026-05-08 00:34 29.99136 -90.25988 10 ft 121 kts 285°
2026-05-08 00:34 29.99425 -90.27157 58 ft 176 kts 286°
2026-05-08 00:34 29.99747 -90.28627 532 ft 198 kts 284°
2026-05-08 00:35 30.00055 -90.30159 1548 ft 195 kts 286°
2026-05-08 00:35 30.00391 -90.31711 2455 ft 208 kts 285°
2026-05-08 00:35 30.00778 -90.33416 3135 ft 232 kts 285°
2026-05-08 00:35 30.01073 -90.35327 3864 ft 253 kts 266°
2026-05-08 00:36 30.00442 -90.37261 4754 ft 266 kts 230°
2026-05-08 00:36 29.98915 -90.38435 5921 ft 271 kts 198°
2026-05-08 00:36 29.97010 -90.38477 6913 ft 282 kts 165°
2026-05-08 00:36 29.95322 -90.37300 7900 ft 292 kts 134°
2026-05-08 00:37 29.94252 -90.35277 8863 ft 300 kts 117°
2026-05-08 00:37 29.93197 -90.33175 9819 ft 306 kts 124°
2026-05-08 00:37 29.92012 -90.31090 10597 ft 318 kts 127°
2026-05-08 00:38 29.89281 -90.26703 11697 ft 352 kts 130°
2026-05-08 00:38 29.87815 -90.24431 12385 ft 362 kts 130°
2026-05-08 00:38 29.86313 -90.22071 13300 ft 366 kts 130°
2026-05-08 00:38 29.84792 -90.19684 14069 ft 373 kts 131°
2026-05-08 00:39 29.83249 -90.17258 14848 ft 378 kts 131°
2026-05-08 00:39 29.81687 -90.14798 15609 ft 383 kts 131°
2026-05-08 00:39 29.80100 -90.12306 16354 ft 388 kts 132°
2026-05-08 00:39 29.78492 -90.09779 17099 ft 393 kts 132°
2026-05-08 00:40 29.76868 -90.07228 17817 ft 398 kts 133°
2026-05-08 00:40 29.75223 -90.04647 18493 ft 402 kts 133°
2026-05-08 00:40 29.73560 -90.02034 19093 ft 407 kts 133°
2026-05-08 00:40 29.71900 -89.99429 19676 ft 412 kts 132°
2026-05-08 00:41 29.70196 -89.96758 20257 ft 416 kts 132°
2026-05-08 00:41 29.68472 -89.94056 20834 ft 421 kts 132°
2026-05-08 00:41 29.66728 -89.91324 21404 ft 426 kts 132°
2026-05-08 00:41 29.64962 -89.88561 21985 ft 431 kts 132°
2026-05-08 00:42 29.63175 -89.85767 22540 ft 435 kts 131°
2026-05-08 00:42 29.61372 -89.82950 23088 ft 440 kts 131°
2026-05-08 00:42 29.59544 -89.80094 23628 ft 444 kts 131°
2026-05-08 00:42 29.57698 -89.77219 24086 ft 448 kts 132°
2026-05-08 00:43 29.55841 -89.74322 24569 ft 452 kts 132°
2026-05-08 00:43 29.53974 -89.71410 25047 ft 455 kts 132°
2026-05-08 00:43 29.52113 -89.68508 25511 ft 458 kts 132°
2026-05-08 00:43 29.50213 -89.65553 25952 ft 462 kts 132°
2026-05-08 00:44 29.48299 -89.62575 26410 ft 465 kts 132°
2026-05-08 00:44 29.46372 -89.59577 26875 ft 468 kts 132°
2026-05-08 00:44 29.44429 -89.56558 27303 ft 471 kts 133°
2026-05-08 00:44 29.42475 -89.53522 27729 ft 474 kts 133°
2026-05-08 00:45 29.40507 -89.50469 28150 ft 478 kts 133°
2026-05-08 00:45 29.38527 -89.47399 28583 ft 481 kts 133°
2026-05-08 00:45 29.36532 -89.44303 29006 ft 484 kts 133°
2026-05-08 00:45 29.34523 -89.41193 29402 ft 487 kts 133°
2026-05-08 00:46 29.32497 -89.38058 29798 ft 490 kts 133°
2026-05-08 00:46 29.30486 -89.34949 30172 ft 493 kts 133°
2026-05-08 00:46 29.28438 -89.31783 30520 ft 496 kts 133°
2026-05-08 00:46 29.26375 -89.28597 30880 ft 497 kts 133°
2026-05-08 00:47 29.24312 -89.25411 31237 ft 500 kts 133°
2026-05-08 00:47 29.22231 -89.22202 31588 ft 502 kts 133°
2026-05-08 00:47 29.20148 -89.18991 31936 ft 504 kts 133°
2026-05-08 00:47 29.18052 -89.15765 32285 ft 506 kts 133°
2026-05-08 00:48 29.15949 -89.12526 32621 ft 508 kts 133°
2026-05-08 00:48 29.13837 -89.09277 32953 ft 510 kts 133°
2026-05-08 00:48 29.11711 -89.06009 33329 ft 511 kts 133°
2026-05-08 00:48 29.09586 -89.02743 33772 ft 511 kts 133°
2026-05-08 00:49 29.07465 -88.99484 34208 ft 510 kts 133°
2026-05-08 00:49 29.05344 -88.96228 34585 ft 510 kts 133°
2026-05-08 00:49 29.03256 -88.93025 34924 ft 510 kts 133°
2026-05-08 00:49 29.01135 -88.89777 35260 ft 510 kts 133°
2026-05-08 00:50 28.99013 -88.86529 35615 ft 510 kts 133°
2026-05-08 00:50 28.96888 -88.83281 35925 ft 511 kts 133°
2026-05-08 00:50 28.94759 -88.80028 36240 ft 511 kts 133°
2026-05-08 00:50 28.92623 -88.76769 36549 ft 511 kts 133°
2026-05-08 00:51 28.90492 -88.73520 36858 ft 512 kts 133°
2026-05-08 00:51 28.88551 -88.70084 37145 ft 520 kts 119°
2026-05-08 00:51 28.87275 -88.66200 37469 ft 525 kts 111°
2026-05-08 00:51 28.86136 -88.62229 37713 ft 526 kts 111°
2026-05-08 00:52 28.85012 -88.58260 37988 ft 526 kts 110°
2026-05-08 00:52 28.83903 -88.54282 38262 ft 526 kts 110°
2026-05-08 00:52 28.82798 -88.50302 38542 ft 526 kts 110°
2026-05-08 00:52 28.81692 -88.46323 38787 ft 526 kts 110°
2026-05-08 00:53 28.80583 -88.42337 39009 ft 526 kts 110°
2026-05-08 00:53 28.79491 -88.38414 39220 ft 526 kts 110°
2026-05-08 00:53 28.78384 -88.34444 39444 ft 525 kts 110°
2026-05-08 00:53 28.77279 -88.30486 39663 ft 524 kts 110°
2026-05-08 00:54 28.76171 -88.26522 39851 ft 524 kts 110°
2026-05-08 00:54 28.75064 -88.22567 40065 ft 523 kts 110°
2026-05-08 00:54 28.73957 -88.18616 40252 ft 523 kts 110°
2026-05-08 00:54 28.72850 -88.14671 40442 ft 522 kts 110°
2026-05-08 00:55 28.71743 -88.10727 40617 ft 522 kts 110°
2026-05-08 00:55 28.70636 -88.06796 40787 ft 521 kts 110°
2026-05-08 00:55 28.69528 -88.02861 40950 ft 520 kts 110°
2026-05-08 00:56 28.67316 -87.95022 41007 ft 519 kts 110°
2026-05-08 00:56 28.65106 -87.87208 41007 ft 518 kts 110°
2026-05-08 00:57 28.62891 -87.79396 41004 ft 518 kts 110°
2026-05-08 00:57 28.60674 -87.71600 41005 ft 517 kts 110°
2026-05-08 00:58 28.58471 -87.63868 41003 ft 517 kts 110°
2026-05-08 00:58 28.56248 -87.56083 41010 ft 516 kts 110°
2026-05-08 00:59 28.54024 -87.48317 41008 ft 516 kts 110°
2026-05-08 00:59 28.51796 -87.40554 41010 ft 516 kts 110°
2026-05-08 01:00 28.49566 -87.32805 41009 ft 516 kts 110°
2026-05-08 01:00 28.47344 -87.25101 41007 ft 516 kts 110°
2026-05-08 01:01 28.45102 -87.17346 41007 ft 516 kts 110°
2026-05-08 01:01 28.42858 -87.09602 41008 ft 515 kts 110°
2026-05-08 01:02 28.40614 -87.01873 41010 ft 515 kts 110°
2026-05-08 01:02 28.38362 -86.94141 41010 ft 515 kts 110°
2026-05-08 01:03 28.36491 -86.87726 41009 ft 515 kts 110°
2026-05-08 01:03 28.34234 -86.80005 41011 ft 515 kts 111°
2026-05-08 01:04 28.31977 -86.72300 41013 ft 514 kts 110°
2026-05-08 01:04 28.29734 -86.64601 41011 ft 514 kts 110°
2026-05-08 01:05 28.27488 -86.56909 41011 ft 513 kts 110°
2026-05-08 01:05 28.25240 -86.49224 41013 ft 513 kts 110°
2026-05-08 01:06 28.23001 -86.41590 41025 ft 513 kts 110°
2026-05-08 01:06 28.20746 -86.33917 41031 ft 512 kts 110°
2026-05-08 01:07 28.18487 -86.26251 41018 ft 512 kts 110°
2026-05-08 01:07 28.16227 -86.18596 41014 ft 512 kts 110°
2026-05-08 01:08 28.13961 -86.10942 41011 ft 512 kts 110°
2026-05-08 01:08 28.11697 -86.03309 41019 ft 511 kts 110°
2026-05-08 01:09 28.09428 -85.95678 41021 ft 511 kts 110°
2026-05-08 01:09 28.07156 -85.88056 41016 ft 511 kts 111°
2026-05-08 01:10 28.04881 -85.80439 41020 ft 510 kts 110°
2026-05-08 01:10 28.02618 -85.72879 41013 ft 510 kts 111°
2026-05-08 01:11 28.00335 -85.65273 41022 ft 509 kts 111°
2026-05-08 01:11 27.98055 -85.57690 41025 ft 509 kts 111°
2026-05-08 01:12 27.95772 -85.50114 41018 ft 508 kts 111°
2026-05-08 01:12 27.93487 -85.42552 41022 ft 508 kts 111°
2026-05-08 01:13 27.91214 -85.35040 41020 ft 507 kts 111°
2026-05-08 01:13 27.88927 -85.27495 41024 ft 507 kts 110°
2026-05-08 01:14 27.87403 -85.19707 41027 ft 508 kts 102°
2026-05-08 01:14 27.86074 -85.11853 41023 ft 508 kts 102°
2026-05-08 01:15 27.84754 -85.04004 41021 ft 508 kts 102°
2026-05-08 01:15 27.83429 -84.96153 41022 ft 508 kts 102°
2026-05-08 01:16 27.82103 -84.88330 40063 ft 509 kts 102°
2026-05-08 01:16 27.81471 -84.84337 39014 ft 520 kts 96°
2026-05-08 01:16 27.81454 -84.80339 38547 ft 514 kts 86°
2026-05-08 01:16 27.81612 -84.76292 37520 ft 519 kts 87°
2026-05-08 01:17 27.81784 -84.72182 36437 ft 527 kts 86°
2026-05-08 01:17 27.81973 -84.68061 35754 ft 525 kts 86°
2026-05-08 01:17 27.82170 -84.63892 34690 ft 533 kts 86°
2026-05-08 01:17 27.82367 -84.59739 34262 ft 525 kts 86°
2026-05-08 01:18 27.82559 -84.55671 33458 ft 526 kts 86°
2026-05-08 01:18 27.82753 -84.51537 32594 ft 527 kts 87°
2026-05-08 01:18 27.82946 -84.47394 31742 ft 529 kts 87°
2026-05-08 01:18 27.83138 -84.43249 31005 ft 528 kts 87°
2026-05-08 01:19 27.83328 -84.39121 30409 ft 524 kts 87°
2026-05-08 01:19 27.83515 -84.35020 29775 ft 519 kts 87°
2026-05-08 01:19 27.83700 -84.30964 29120 ft 515 kts 87°
2026-05-08 01:19 27.83881 -84.26945 28506 ft 510 kts 87°
2026-05-08 01:20 27.84060 -84.22955 27928 ft 505 kts 87°
2026-05-08 01:20 27.84235 -84.19016 27355 ft 500 kts 87°
2026-05-08 01:20 27.84408 -84.15116 26816 ft 495 kts 87°
2026-05-08 01:20 27.84579 -84.11234 26150 ft 493 kts 87°
2026-05-08 01:21 27.84748 -84.07371 25435 ft 492 kts 87°
2026-05-08 01:21 27.84911 -84.03606 24771 ft 479 kts 87°
2026-05-08 01:21 27.85073 -83.99846 24072 ft 469 kts 87°
2026-05-08 01:21 27.85229 -83.96232 23285 ft 463 kts 87°
2026-05-08 01:22 27.85391 -83.92547 22578 ft 462 kts 85°
2026-05-08 01:22 27.85685 -83.89001 22133 ft 456 kts 84°
2026-05-08 01:22 27.85984 -83.85459 21660 ft 451 kts 84°
2026-05-08 01:22 27.86272 -83.81935 21168 ft 448 kts 84°
2026-05-08 01:23 27.86555 -83.78442 20691 ft 444 kts 84°
2026-05-08 01:23 27.86834 -83.74979 20221 ft 441 kts 84°
2026-05-08 01:23 27.87110 -83.71545 19771 ft 437 kts 84°
2026-05-08 01:23 27.87382 -83.68132 19323 ft 434 kts 84°
2026-05-08 01:24 27.87653 -83.64739 18777 ft 434 kts 84°
2026-05-08 01:24 27.87922 -83.61348 18209 ft 428 kts 84°
2026-05-08 01:24 27.88185 -83.58029 17573 ft 421 kts 84°
2026-05-08 01:24 27.88445 -83.54726 16934 ft 422 kts 84°
2026-05-08 01:25 27.88703 -83.51452 16322 ft 423 kts 85°
2026-05-08 01:25 27.88959 -83.48193 15751 ft 410 kts 85°
2026-05-08 01:25 27.89207 -83.45023 15178 ft 399 kts 85°
2026-05-08 01:25 27.89447 -83.41949 14616 ft 388 kts 85°
2026-05-08 01:26 27.89680 -83.38951 14072 ft 378 kts 85°
2026-05-08 01:26 27.89907 -83.36024 13493 ft 369 kts 85°
2026-05-08 01:26 27.90129 -83.33166 12891 ft 361 kts 85°
2026-05-08 01:26 27.90345 -83.30370 12305 ft 354 kts 85°
2026-05-08 01:27 27.90556 -83.27625 11726 ft 347 kts 85°
2026-05-08 01:27 27.90763 -83.24929 11145 ft 341 kts 85°
2026-05-08 01:27 27.90967 -83.22280 10591 ft 335 kts 85°
2026-05-08 01:27 27.91166 -83.19674 10102 ft 328 kts 84°
2026-05-08 01:28 27.91396 -83.17194 10003 ft 307 kts 77°
2026-05-08 01:28 27.92169 -83.15001 9814 ft 298 kts 62°
2026-05-08 01:28 27.93081 -83.12905 9603 ft 297 kts 63°
2026-05-08 01:28 27.93976 -83.10811 9396 ft 295 kts 63°
2026-05-08 01:29 27.94867 -83.08731 9211 ft 294 kts 63°
2026-05-08 01:29 27.95756 -83.06652 9034 ft 293 kts 63°
2026-05-08 01:29 27.96640 -83.04585 8852 ft 291 kts 63°
2026-05-08 01:29 27.97510 -83.02550 8679 ft 290 kts 63°
2026-05-08 01:30 27.98386 -83.00501 8498 ft 289 kts 63°
2026-05-08 01:30 27.99260 -82.98455 8322 ft 288 kts 63°
2026-05-08 01:30 28.00128 -82.96421 8147 ft 287 kts 63°
2026-05-08 01:30 28.00994 -82.94390 7971 ft 286 kts 63°
2026-05-08 01:31 28.01857 -82.92366 7795 ft 285 kts 63°
2026-05-08 01:31 28.02735 -82.90361 7619 ft 283 kts 58°
2026-05-08 01:31 28.03942 -82.88616 7451 ft 281 kts 45°
2026-05-08 01:31 28.05311 -82.87045 7274 ft 279 kts 40°
2026-05-08 01:32 28.06836 -82.85699 7115 ft 278 kts 34°
2026-05-08 01:32 28.08413 -82.84430 6957 ft 277 kts 31°
2026-05-08 01:32 28.10088 -82.83398 6816 ft 271 kts 24°
2026-05-08 01:32 28.11756 -82.82483 6684 ft 263 kts 24°
2026-05-08 01:33 28.13374 -82.81619 6597 ft 251 kts 20°
2026-05-08 01:33 28.14976 -82.81015 6498 ft 241 kts 14°
2026-05-08 01:33 28.16557 -82.80499 6407 ft 231 kts 14°
2026-05-08 01:33 28.18063 -82.80009 6343 ft 220 kts 14°
2026-05-08 01:34 28.19506 -82.79535 6222 ft 212 kts 14°
2026-05-08 01:34 28.20927 -82.79068 5941 ft 213 kts 14°
2026-05-08 01:34 28.22358 -82.78598 5654 ft 215 kts 14°
2026-05-08 01:34 28.23796 -82.78124 5368 ft 216 kts 14°
2026-05-08 01:35 28.25249 -82.77642 5011 ft 221 kts 16°
2026-05-08 01:35 28.26515 -82.76681 4715 ft 224 kts 54°
2026-05-08 01:35 28.26966 -82.75044 4588 ft 215 kts 89°
2026-05-08 01:35 28.26683 -82.73439 4530 ft 203 kts 117°
2026-05-08 01:36 28.25841 -82.72211 4421 ft 196 kts 139°
2026-05-08 01:36 28.24835 -82.71131 4332 ft 202 kts 137°
2026-05-08 01:36 28.23825 -82.70005 4211 ft 204 kts 136°
2026-05-08 01:36 28.22826 -82.68868 4134 ft 201 kts 136°
2026-05-08 01:37 28.21864 -82.67768 4046 ft 198 kts 136°
2026-05-08 01:37 28.20907 -82.66664 3930 ft 195 kts 136°
2026-05-08 01:37 28.19961 -82.65566 3830 ft 194 kts 136°
2026-05-08 01:37 28.19018 -82.64468 3716 ft 194 kts 136°
2026-05-08 01:38 28.18096 -82.63391 3623 ft 187 kts 135°
2026-05-08 01:38 28.17199 -82.62336 3510 ft 184 kts 135°
2026-05-08 01:38 28.16315 -82.61294 3398 ft 183 kts 135°
2026-05-08 01:38 28.15435 -82.60258 3284 ft 182 kts 135°
2026-05-08 01:39 28.14556 -82.59225 3155 ft 181 kts 135°
2026-05-08 01:39 28.13680 -82.58198 3031 ft 182 kts 135°
2026-05-08 01:39 28.12797 -82.57164 2759 ft 183 kts 135°
2026-05-08 01:39 28.11908 -82.56121 2478 ft 183 kts 135°
2026-05-08 01:40 28.11037 -82.55097 2305 ft 179 kts 135°
2026-05-08 01:40 28.10181 -82.54097 2150 ft 179 kts 134°
2026-05-08 01:40 28.09318 -82.53135 1977 ft 170 kts 143°
2026-05-08 01:40 28.08285 -82.52563 1770 ft 163 kts 169°
2026-05-08 01:41 28.07172 -82.52468 1637 ft 157 kts 186°
2026-05-08 01:41 28.06106 -82.52554 1433 ft 150 kts 187°
2026-05-08 01:41 28.05071 -82.52609 1254 ft 149 kts 185°
2026-05-08 01:41 28.04043 -82.52640 1073 ft 146 kts 185°
2026-05-08 01:42 28.03031 -82.52674 879 ft 145 kts 184°
2026-05-08 01:42 28.02013 -82.52709 724 ft 147 kts 184°
2026-05-08 01:42 28.01016 -82.52736 539 ft 141 kts 182°
2026-05-08 01:42 28.00015 -82.52773 345 ft 148 kts 184°
2026-05-08 01:43 27.98984 -82.52810 136 ft 154 kts 185°
2026-05-08 01:43 27.97945 -82.52845 42 ft 141 kts 184°
2026-05-08 01:43 27.97129 -82.52879 40 ft 81 kts 182°
2026-05-08 01:43 27.96885 -82.52940 40 ft 21 kts 254°
2026-05-08 01:44 27.96889 -82.52974 42 ft 9 kts 295°
2026-05-08 01:44 27.96999 -82.53005 41 ft 24 kts
2026-05-08 01:44 27.97166 -82.53001 42 ft 19 kts
2026-05-08 01:44 27.97306 -82.53000 44 ft 21 kts
2026-05-08 01:45 27.97464 -82.52992 44 ft 22 kts
2026-05-08 01:45 27.97629 -82.52985 45 ft 25 kts
2026-05-08 01:45 27.97812 -82.52982 44 ft 28 kts
2026-05-08 01:45 27.97978 -82.52974 44 ft 24 kts
2026-05-08 01:46 27.98145 -82.52967 44 ft 24 kts
2026-05-08 01:46 27.98273 -82.52965 44 ft 15 kts 358°
2026-05-08 01:46 27.98339 -82.53010 43 ft 8 kts 312°
2026-05-08 01:46 27.98352 -82.53075 45 ft 9 kts 255°
2026-05-08 01:47 27.98343 -82.53108 42 ft 2 kts 252°
2026-05-08 01:47 27.98340 -82.53119 45 ft 0 kts 254°